AirNav   Pilot Hours Calculator
 
 1220 users online  

KDYL Doylestown Airport
Doylestown, Pennsylvania, USA

GOING TO DOYLESTOWN?


FAA INFORMATION EFFECTIVE 16 JUNE 2022

Location

FAA Identifier: DYL
Lat/Long: 40-19-58.9810N 075-07-20.4180W
40-19.983017N 075-07.340300W
40.3330503,-75.1223383
(estimated)
Elevation: 393.7 ft. / 120.0 m (surveyed)
Variation: 12W (1995)
From city: 2 miles N of DOYLESTOWN, PA
Time zone: UTC -4 (UTC -5 during Standard Time)
Zip code: 18901

Airport Operations

Airport use: Open to the public
Activation date: 05/1942
Control tower: no
ARTCC: NEW YORK CENTER
FSS: WILLIAMSPORT FLIGHT SERVICE STATION
NOTAMs facility: DYL (NOTAM-D service available)
Attendance: 0700-DUSK
NO SERVICES AVBL CHRISTMAS, NEW YEARS, & THANKSGIVING.
Wind indicator: lighted
Segmented circle: yes
Lights: ACTVT REIL 23; MIRL 05/23 - CTAF. MIRL 05/23 OPR CONSLY-SS-SR.
Beacon: white-green (lighted land airport)
Operates sunset to sunrise.

Airport Communications

CTAF/UNICOM: 122.975
WX ASOS: 118.875 (215-345-0392)
PHILADELPHIA APPROACH: 123.8
PHILADELPHIA DEPARTURE: 123.8
CLEARANCE DELIVERY: 118.55
WX AWOS-3 at CKZ (8 nm NW): 126.325 (215-257-7291)
WX AWOS-3 at UKT (13 nm NW): 119.475 (215-538-7610)
WX AWOS-3 at LOM (13 nm SW): 118.925 (215-646-1068)
WX ASOS at TTN (15 nm E): 126.775 (609-538-8690)
WX AWOS-3 at N40 (15 nm NE): 121.725
WX ASOS at PNE (16 nm S): PHONE 215-677-0146
  • CLEARANCE DELIVERY PHILADELPHIA APCH TF 800-354-9884.

Airport Services

Fuel available: 100LL JET-A
Parking: tiedowns
Airframe service: MAJOR
Powerplant service: MAJOR
Bottled oxygen: NONE
Bulk oxygen: NONE

Runway Information

Runway 5/23

Dimensions: 3002 x 60 ft. / 915 x 18 m
Surface: asphalt, in good condition
Weight bearing capacity: 
Single wheel: 12.0
Runway edge lights: medium intensity
RUNWAY 5  RUNWAY 23
Latitude: 40-19.787617N40-20.180290N
Longitude: 075-07.536205W075-07.143720W
Elevation: 391.7 ft.393.7 ft.
Traffic pattern: leftleft
Runway heading: 049 magnetic, 037 true229 magnetic, 217 true
Markings: nonprecision, in fair conditionnonprecision, in fair condition
Visual slope indicator: 2-box SAVASI on left (5.00 degrees glide path)2-light PAPI on left (3.00 degrees glide path)
Runway end identifier lights: yes
Touchdown point: yes, no lightsyes, no lights
Obstructions: 19 ft. tree, 443 ft. from runway, 161 ft. left of centerline, 12:1 slope to clear62 ft. tree, 1162 ft. from runway, 346 ft. left of centerline, 15:1 slope to clear

Airport Ownership and Management from official FAA records

Ownership: Publicly-owned
Owner: BUCKS COUNTY AIRPORT AUTH
BOX 1185
DOYLESTOWN, PA 18902
Phone 215-345-1970
Manager: MARCEL BISSCHOPS
3879 OLD EASTON RD
DOYLESTOWN, PA 18902
Phone 215-340-0707

Airport Operational Statistics

Aircraft based on the field: 139
Single engine airplanes: 123
Multi engine airplanes: 12
Helicopters: 3
Gliders airplanes: 1
    
Aircraft operations: avg 119/day *
69% local general aviation
24% transient general aviation
7% air taxi
<1% military
* for 12-month period ending 04 January 2022

Additional Remarks

NOISE ABATEMENT PROCEDURES IN EFFECT; CTC AMGR 215-340-0707.
TOUCH AND GO LNDGS PROHIBITED.
MIDFIELD TWY CLSD INDEFLY.
DEER, GEESE AND OTHER WILDLIFE ON AND INVOF RWY.
RY 05 IS USED FOR CROSSWIND & CALM WIND RY.
FOR CD CTC PHILADELPHIA APCH AT 800-354-9884.

Instrument Procedures

NOTE: All procedures below are presented as PDF files. If you need a reader for these files, you should download the free Adobe Reader.

NOT FOR NAVIGATION. Please procure official charts for flight.
FAA instrument procedures published for use from 16 June 2022 at 0901Z to 14 July 2022 at 0900z.

 
IAPs - Instrument Approach Procedures
RNAV (GPS) RWY 05   download (183KB)
RNAV (GPS) RWY 23   download (182KB)
VOR-A   download (191KB)
NOTE: Special Alternate Minimums apply   download (132KB)
NOTE: Special Take-Off Minimums/Departure Procedures apply   download (149KB)

Other nearby airports with instrument procedures:

KCKZ - Pennridge Airport (8 nm NW)
KUKT - Quakertown Airport (13 nm NW)
KLOM - Wings Field Airport (13 nm SW)
KTTN - Trenton Mercer Airport (15 nm E)
N40 - Sky Manor Airport (15 nm NE)
KPNE - Northeast Philadelphia Airport (16 nm S)
N85 - Alexandria Airport (16 nm N)
 
Loc | Ops | Rwys | IFR | FBO | Links
Com | Nav | Svcs | Stats | Notes
Area around KDYL (Doylestown Airport)
 
Road maps at: MapQuest Bing Google
 
Aerial photo
WARNING: Photo may not be current or correct
Aerial photo of KDYL (Doylestown Airport)
Photo by Sajeeb Baksh
Photo taken 04-Jul-2019
looking west.

Do you have a better or more recent aerial photo of Doylestown Airport that you would like to share? If so, please send us your photo.

 
Sectional chart

 
Airport distance calculator
Flying to Doylestown Airport? Find the distance to fly.

From to KDYL

Sunrise and sunset
Times for 01-Jul-2022
 Local
(UTC-4)
 Zulu
(UTC)
Morning civil twilight05:0209:02
Sunrise05:3509:35
Sunset20:3300:33
Evening civil twilight21:0601:06

Current date and time
Zulu (UTC)  01-Jul-2022 22:59:14
Local (UTC-4)  01-Jul-2022 18:59:14
 
METAR
KDYL 012254Z AUTO 20006KT 10SM CLR 29/18 A2997 RMK AO2 SLP142 T02890183
KCKZ 
8nm NW 
012235Z AUTO 20007KT 160V230 10SM CLR 27/23 A2999 RMK AO2
KUKT 
13nm NW 
012235Z AUTO 22007G13KT 10SM CLR 28/22 A2998 RMK A01
KLOM 
13nm SW 
012235Z AUTO 10SM CLR 29/20 A2999 RMK AO2 T02950202
KTTN 
14nm E 
ASOS 133.70 609-538-8690
012253Z 23007KT 10SM FEW095 29/20 A2996 RMK AO2 SLP137 T02940200
KPNE 
16nm S 
012254Z 23008G18KT 10SM CLR 31/20 A2998 RMK AO2 SLP150 T03110200
TAF
KTTN 
14nm E 
011124Z 0112/0212 23004KT P6SM SKC FM011400 24010KT P6SM SCT040 FM011600 23014G20KT P6SM BKN050 OVC200 FM012100 23012KT P6SM VCTS SCT050CB BKN100 FM020200 20006KT P6SM BKN100
KPNE 
16nm S 
011731Z 0118/0218 23010G18KT P6SM SCT050 FM012000 23010G18KT P6SM VCTS SCT050CB FM020000 22006KT P6SM SCT100 FM021000 23006KT P6SM BKN100 FM021400 26010G18KT P6SM SCT050
NOTAMs
Click for the latest NOTAMs
NOTAMs are issued by the DoD/FAA and will open in a separate window not controlled by AirNav.

 

 
 

FBO, Fuel Providers, and Aircraft Ground Support

  
 Business Name 
 
 Contact 
 
 Services / Description 
 
Fuel Prices
 
Comments
  
Leading Edge Aviation 215-340-0707
[web site]
[email]
Aviation fuel, Oxygen service, Aircraft parking (ramp or tiedown), Hangars, GPU / Power cart, Flight training, Aircraft rental, ...

More info about Leading Edge Aviation
Phillips 66
100LL Jet A
FS $7.49 $8.49 
 Updated 26-Jun-2022
 
   write
FS=Full service
Update Fuel Prices
 

Would you like to see your business listed on this page?

 If your business provides an interesting product or service to pilots, flight crews, aircraft, or users of the Doylestown Airport, you should consider listing it here.  To start the listing process, click on the button below
 
Add a business
 

Other Pages about Doylestown Airport

Update a link
 
Copyright © AirNav, LLC. All rights reserved. Privacy Policy  Contact